This demonstration page uses our WeatherBlox Daily Observations layout. Learn more.

Left ArrowRight Arrow

Hourly Observations for September 14, 2020

Temp ( °F °C ) Dew Point ( °F °C ) Humidity (%) Winds ( mph kmh ) Pressure ( in mb ) Visibility ( mi km ) Precip ( " mm )
12:52 am 00:52 Clear 57 13.9 56 13.3 96 96 Calm 30.23 1024 10 16 0.00 0.00
1:52 am 01:52 Clear 59 15 57 13.9 93 93 SE 5 7 30.23 1024 10 16 0.00 0.00
2:52 am 02:52 Clear 60 15.6 57 13.9 90 90 SSE 6 9 30.23 1024 10 16 0.00 0.00
3:52 am 03:52 Clear 58 14.4 56 13.3 93 93 SSE 6 9 30.24 1024 10 16 0.00 0.00
4:52 am 04:52 Clear 57 13.9 56 13.3 96 96 SSE 6 9 30.24 1024 10 16 0.00 0.00
5:52 am 05:52 Clear 56 13.3 55 12.8 97 97 SSE 8 13 30.25 1024 10 16 0.00 0.00
6:52 am 06:52 Clear 58 14.4 57 13.9 97 97 S 7 11 30.27 1025 10 16 0.00 0.00
7:52 am 07:52 Sunny 58 14.4 57 13.9 97 97 SSE 6 9 30.30 1026 10 16 0.00 0.00
8:52 am 08:52 Sunny 60 15.6 58 14.4 93 93 SE 7 11 30.31 1026 8 13 0.00 0.00
9:52 am 09:52 Sunny 64 17.8 59 15 84 84 SSE 7 11 30.32 1027 10 16 0.00 0.00
10:52 am 10:52 Sunny 70 21.1 59 15 68 68 S 7 11 30.32 1027 10 16 0.00 0.00
11:52 am 11:52 Sunny 73 22.8 59 15 62 62 S 10 17 30.32 1027 10 16 0.00 0.00
12:52 pm 12:52 Sunny 75 23.9 59 15 58 58 S 7 11 30.31 1026 10 16 0.00 0.00
1:52 pm 13:52 Sunny 77 25 58 14.4 52 52 S 12 19 30.28 1026 10 16 0.00 0.00
2:52 pm 14:52 Mostly Sunny 78 25.6 58 14.4 50 50 S 10 17 30.27 1025 10 16 0.00 0.00
3:52 pm 15:52 Sunny 79 26.1 57 13.9 47 47 S 10 17 30.24 1024 10 16 0.00 0.00
4:52 pm 16:52 Cloudy 78 25.6 54 12.2 43 43 S 10 17 30.23 1024 10 16 0.00 0.00
5:52 pm 17:52 Cloudy 77 25 59 15 54 54 S 8 13 30.23 1024 10 16 0.00 0.00
6:52 pm 18:52 Cloudy 75 23.9 58 14.4 55 55 S 10 17 30.22 1023 10 16 0.00 0.00
7:52 pm 19:52 Cloudy 68 20 58 14.4 70 70 SSE 8 13 30.22 1023 10 16 0.00 0.00
8:52 pm 20:52 Mostly Cloudy 66 18.9 59 15 78 78 SSE 7 11 30.23 1024 10 16 0.00 0.00
9:52 pm 21:52 Clear 67 19.4 60 15.6 79 79 SSE 8 13 30.24 1024 10 16 0.00 0.00
10:52 pm 22:52 Clear 65 18.3 60 15.6 84 84 S 7 11 30.23 1024 10 16 0.00 0.00
11:52 pm 23:52 Clear 64 17.8 59 15 84 84 S 7 11 30.23 1024 10 16 0.00 0.00

Powered by AerisWeather